Location: *
(47.8307°S, 178.3954°E)
Time: 06:57:40
(UTC+00:00)

Cosmos 1378 Rocket - Pass Details

Date: 12 August 2024
Orbit: 597 x 623 km, 82.5° (Epoch: 18 September)

Event Time Altitude Azimuth Distance (km) Brightness Sun altitude
Exits shadow 17:12:48 39° 220° (SW) 945 4.2 -20.6°
Drops below altitude 10° 17:16:09 10° 182° (S) 2,021 6.2 -20.0°
Sets 17:18:30 0° 175° (S) 2,939 7.1 -19.6°
